Theta_e
310 310 312 312 309 311 311 312 313 312 312 312 311 311 312 308 305 305 304 302 303 302 302 303 305 305 307 309 310 310 310 310 314 314 314 314 315 316 318 318 319 319 319 318
311 311 311 311 310 311 312 313 312 311 310 311 311 312 309 308 307 307 308 306 305 303 299 301 303 304 306 308 309 308 308 309 311 312 312 312 311 308 311 311 312 312 312 313
313 314 311 312 311 312 311 311 312 313 312 310 309 312 310 308 307 307 307 308 307 304 301 300 300 302 305 306 307 307 307 308 307 309 307 305 304 302 301 301 304 303 304 306
312 312 312 312 313 312 313 310 312 313 315 316 311 319 313 310 309 308 309 309 306 302 301 301 300 300 303 305 306 306 305 304 305 306 306 307 304 297 295 297 296 295 296 295
314 313 313 313 313 312 314 311 312 313 313 312 313 313 316 311 311 310 312 309 304 302 301 301 300 301 302 305 304 305 304 302 303 303 303 300 297 297 294 292 291 289 289 289
312 310 311 313 311 311 310 311 310 310 311 315 313 314 319 312 312 311 311 309 304 301 300 300 301 300 300 303 304 303 301 298 301 301 300 298 299 296 292 289 288 287 287 287
312 312 310 309 312 310 311 313 316 316 314 319 311 312 317 313 312 310 310 307 304 299 298 299 298 299 299 301 302 299 298 297 298 298 298 297 297 294 291 288 288 287 286 286
316 318 310 308 312 314 311 312 316 316 317 316 312 316 314 309 308 307 305 305 303 298 298 298 298 299 300 302 301 298 297 296 297 298 297 296 295 292 289 287 286 286 286 286
314 315 309 309 309 312 311 313 312 314 299 309 314 313 312 309 309 310 306 303 300 297 297 298 298 299 300 301 300 298 297 296 296 297 296 296 293 290 289 287 286 286 286 286
313 317 310 310 310 309 311 309 314 313 313 316 316 315 317 315 314 310 307 303 300 297 297 297 297 297 298 299 299 298 297 296 296 295 296 294 291 289 288 286 286 286 286 285
312 314 313 309 310 311 311 312 312 314 312 314 314 319 310 313 312 309 307 304 300 297 297 296 296 296 297 297 297 296 296 294 293 294 293 291 288 288 287 286 286 286 285 285
312 313 309 312 309 308 310 312 314 319 315 312 313 320 309 309 307 306 306 304 299 297 295 294 294 294 294 294 294 294 294 294 294 293 292 290 289 288 287 286 286 285 285 284
315 317 321 321 315 311 311 311 313 314 313 315 317 320 306 308 307 306 305 303 298 296 293 292 292 292 292 292 292 293 293 293 292 291 290 289 288 287 286 286 285 285 284 284
315 316 316 323 318 314 315 312 312 315 320 317 319 320 315 310 308 307 306 303 298 295 293 292 291 292 292 291 291 292 291 292 291 290 289 288 287 286 286 285 285 284 284 284
316 320 317 317 314 311 312 315 314 314 316 321 320 318 317 315 312 310 305 301 298 296 293 292 292 291 291 291 290 290 290 291 290 289 288 287 286 286 285 285 284 284 284 283
315 321 316 321 317 314 317 313 313 315 315 317 318 318 316 312 310 307 306 303 300 298 296 294 292 291 291 291 290 289 289 289 289 288 287 286 286 285 285 284 284 283 283 283
315 318 318 323 319 319 319 319 318 313 314 315 317 316 315 313 310 310 307 303 301 300 298 294 292 291 291 291 290 289 289 288 288 288 287 286 286 285 284 283 283 283 283 282
316 318 318 322 318 323 318 312 315 317 316 313 313 315 314 312 312 309 306 305 302 300 299 296 294 293 291 291 290 289 288 288 288 287 286 286 285 284 284 283 283 283 282 282
312 316 320 322 322 317 313 306 310 313 316 314 315 313 312 309 306 308 303 301 302 300 300 299 297 294 291 290 290 289 287 287 287 286 286 286 286 285 284 283 283 282 282 282
308 312 315 316 322 322 312 305 303 308 317 307 311 313 313 306 311 314 306 302 299 297 298 298 297 293 291 290 289 288 287 287 287 286 286 286 286 285 284 283 282 283 283 283
309 310 312 316 319 313 302 299 303 315 312 295 301 309 304 307 310 303 300 300 297 296 295 295 293 291 290 289 288 287 287 287 287 287 286 286 285 285 284 283 283 283 282 282
309 311 312 312 315 316 296 301 310 305 294 296 301 302 298 302 303 299 298 298 297 296 294 292 290 289 289 289 288 287 287 287 287 287 286 286 286 286 286 284 282 281 281 280
308 307 308 309 311 304 297 300 301 299 299 300 301 300 299 299 299 297 297 296 295 292 293 294 292 290 289 288 288 288 287 288 288 288 288 287 287 286 284 283 282 280 280 280
303 301 308 308 306 305 300 297 295 297 299 298 298 298 298 299 297 296 291 291 290 287 288 291 292 289 288 288 289 290 289 289 289 288 287 286 285 284 283 283 282 280 279 279
303 301 303 302 300 297 298 296 296 295 294 291 291 292 295 296 291 290 288 287 288 287 287 289 289 288 289 289 289 290 290 289 288 286 285 284 284 283 282 282 281 281 281 281
296 300 304 306 301 302 302 299 294 295 292 290 290 288 289 293 292 287 286 287 286 285 287 287 288 289 287 287 288 288 288 287 287 284 284 283 283 282 281 281 280 279 280 280
Wind_Speed
1 4 7 13 8 4 4 4 5 4 3 4 9 11 17 8 7 10 11 11 15 18 14 26 26 23 20 19 19 19 20 21 23 25 24 24 23 22 23 24 25 25 23 21
4 7 14 4 5 5 3 3 7 6 5 6 10 15 12 8 9 12 18 17 19 12 9 19 28 26 25 24 22 22 23 24 26 27 26 26 27 24 25 25 25 25 24 22
8 5 6 8 4 5 6 6 5 8 4 5 6 10 9 9 11 13 14 21 17 19 16 13 21 29 28 27 27 25 25 26 27 28 27 28 25 26 23 24 24 22 22 23
6 4 6 5 6 8 6 8 6 5 1 5 2 13 7 7 12 8 20 19 15 10 13 15 22 25 32 30 27 26 27 27 29 30 29 33 31 27 23 28 27 26 25 26
8 8 6 5 7 8 7 4 6 1 3 4 2 5 1 4 7 13 20 15 9 13 17 19 25 31 31 31 28 27 27 29 30 31 32 31 28 24 32 30 30 29 29 28
4 0 7 8 3 6 7 5 5 4 1 6 10 8 26 6 8 7 11 6 9 11 13 13 20 24 28 32 29 28 29 28 31 32 33 32 36 35 37 35 35 34 33 30
3 5 3 4 5 3 3 7 2 3 1 8 3 6 19 9 9 9 11 8 8 8 10 11 14 21 25 28 27 28 30 29 31 33 34 34 34 38 41 43 42 41 37 34
8 5 12 7 10 8 8 8 6 7 4 5 2 8 6 8 10 10 8 7 3 7 9 12 16 23 27 28 29 29 32 30 34 35 36 34 35 40 41 41 44 43 40 37
7 6 2 2 2 10 5 7 4 4 2 2 5 8 8 9 12 17 4 3 7 8 9 11 16 23 28 29 30 31 32 32 35 36 36 36 38 41 43 42 41 40 39 36
5 1 1 2 3 3 6 7 2 1 2 5 5 6 8 8 12 9 6 8 7 7 7 9 13 21 26 28 29 30 34 36 37 36 36 37 39 40 42 42 42 40 39 37
5 4 1 4 6 10 4 4 3 4 5 5 3 7 7 6 5 8 9 7 8 9 11 11 12 18 25 30 32 33 35 33 33 36 37 36 38 40 41 43 41 40 38 36
5 4 4 7 3 3 1 8 8 4 6 4 2 16 4 7 4 5 8 5 5 6 8 9 13 20 21 25 27 29 32 36 39 40 39 40 43 44 46 46 43 41 39 36
9 4 3 2 1 3 7 7 15 5 3 9 5 12 3 2 6 6 7 3 6 7 8 8 9 15 22 27 30 33 34 34 36 38 39 39 42 46 47 46 44 42 40 37
9 6 8 9 5 5 7 12 14 16 9 5 22 23 15 5 7 8 5 2 6 8 9 9 9 14 20 24 28 31 32 36 38 39 37 38 41 45 46 45 44 42 40 38
10 10 11 13 4 4 3 11 21 22 27 14 28 21 33 19 12 12 6 6 7 8 11 14 14 13 21 24 25 29 32 36 37 36 38 40 43 44 44 44 43 41 38 36
7 5 8 16 14 7 6 9 21 27 27 23 27 22 27 8 7 5 11 8 9 10 13 12 11 13 21 26 29 28 31 35 37 34 35 35 41 42 43 42 42 40 38 35
6 6 7 23 13 10 8 33 17 15 21 22 23 34 33 10 11 13 12 8 9 11 11 11 15 17 26 31 32 34 33 36 39 37 36 38 40 40 42 42 41 40 38 36
6 17 10 11 7 13 18 4 18 23 24 24 26 31 29 14 15 13 4 6 11 11 12 13 13 21 28 28 30 30 34 36 37 34 37 39 39 39 41 42 42 41 39 38
15 7 10 12 18 11 12 5 9 11 20 24 26 29 29 11 4 14 6 9 12 11 12 15 22 20 24 28 30 32 32 34 33 33 35 38 42 42 42 42 43 42 40 38
9 16 11 4 8 18 10 5 6 6 14 7 19 27 25 5 8 17 2 3 6 8 10 10 15 21 25 27 34 31 29 30 30 32 34 40 42 42 42 41 43 43 43 42
6 5 13 14 10 4 6 5 6 10 7 3 5 13 6 7 9 3 2 3 2 0 3 10 20 25 27 30 34 28 26 29 32 31 32 34 37 38 40 41 42 44 43 40
11 8 6 6 8 11 7 4 12 6 1 3 2 4 5 3 2 2 3 4 4 5 7 9 13 16 23 31 33 26 28 26 30 31 31 33 34 34 36 40 40 41 41 39
3 4 3 6 4 1 8 2 3 2 4 5 4 4 5 7 6 6 6 5 4 4 6 10 15 15 18 25 28 24 24 28 31 33 33 35 35 36 36 37 35 34 37 36
3 4 3 2 4 6 4 4 4 5 2 0 3 6 6 5 6 4 4 4 5 5 7 10 15 16 18 23 26 24 23 25 28 29 28 29 31 32 33 33 33 33 34 32
6 9 5 4 6 6 9 8 5 6 5 5 3 6 6 6 3 4 4 3 4 6 6 11 15 17 18 21 22 20 18 23 27 27 28 29 29 31 32 34 37 39 42 46
4 7 7 9 8 4 6 5 9 10 8 8 7 2 3 5 7 5 4 6 8 10 9 10 11 13 16 17 17 17 18 23 27 27 28 29 31 32 33 34 31 28 32 38
Wind_Direction
66 124 197 210 200 161 152 198 241 247 244 179 234 241 258 227 219 236 236 227 226 223 215 209 203 200 198 199 196 193 186 186 187 181 171 166 163 163 163 162 162 162 165 164
67 225 223 157 174 197 209 242 260 290 234 193 267 259 249 219 225 219 228 228 227 214 184 188 196 197 197 195 195 190 190 188 185 183 176 171 164 159 158 157 157 158 159 160
178 206 159 160 160 171 223 208 232 228 323 248 299 265 231 246 233 243 241 236 227 211 193 183 185 194 196 195 194 192 190 190 187 186 177 167 160 154 150 153 151 155 159 157
239 251 140 164 193 164 236 209 203 242 328 258 9 293 200 228 240 237 249 241 232 194 188 185 184 188 195 193 193 194 191 186 191 188 184 178 164 154 159 156 152 150 152 150
233 169 170 179 196 163 226 138 178 176 203 331 205 283 261 186 248 248 250 247 213 195 187 186 189 189 190 190 186 189 187 188 191 189 185 171 160 165 159 153 149 147 147 148
230 170 162 194 133 162 147 88 59 58 56 268 190 185 285 170 213 251 261 245 212 198 192 187 183 171 178 185 181 182 182 184 191 189 182 180 178 167 159 156 152 149 148 147
157 211 181 152 99 60 121 100 312 319 349 250 351 219 253 306 281 237 257 262 229 184 172 165 162 166 169 175 176 175 178 180 187 188 188 188 181 170 165 164 162 157 154 153
176 268 172 192 184 183 189 159 161 224 216 272 328 241 247 233 265 272 248 261 200 174 174 175 175 171 170 174 176 176 178 178 189 191 192 189 184 176 172 169 165 163 160 156
165 262 163 163 115 151 194 205 171 85 82 351 224 289 291 267 274 266 258 166 222 187 177 173 173 173 172 176 180 181 180 184 188 192 193 191 188 183 179 174 169 164 161 157
196 256 51 158 100 25 159 161 88 34 231 257 274 267 236 275 268 303 255 232 212 175 166 169 173 172 176 179 181 183 186 189 190 193 194 191 190 188 182 176 173 168 165 163
144 154 339 126 205 171 142 178 180 140 156 195 301 258 215 232 267 287 293 238 206 187 181 172 177 180 177 180 181 184 187 185 185 192 191 191 189 188 183 180 176 173 169 167
199 122 172 205 271 209 92 190 170 165 222 239 150 264 180 228 270 288 293 276 192 188 179 167 167 166 173 178 181 186 185 189 193 193 192 192 192 189 186 183 179 177 174 172
167 181 164 227 40 328 210 206 201 118 89 218 176 255 23 290 289 271 280 253 175 166 162 168 168 184 181 183 185 186 190 193 194 192 192 191 192 190 188 185 182 180 177 175
132 167 195 224 178 140 186 196 199 199 213 163 231 262 256 313 300 295 269 230 182 177 176 184 186 192 195 194 191 191 191 194 193 194 191 191 192 191 190 187 185 184 182 179
172 207 203 232 156 149 222 204 205 207 218 204 249 234 256 241 242 248 214 197 184 203 196 197 197 198 192 192 196 195 194 195 195 190 189 190 192 191 190 190 188 186 186 183
187 229 172 249 223 193 225 227 218 215 223 227 246 251 257 200 241 242 242 212 206 215 218 208 200 196 197 196 193 192 194 194 195 187 188 189 192 192 192 191 189 188 188 187
192 187 193 249 222 210 230 237 214 224 227 220 233 240 261 229 225 238 242 216 214 224 220 196 200 199 202 201 194 191 190 188 191 190 188 191 191 191 192 191 191 190 191 189
232 207 200 245 158 218 239 278 221 221 230 223 242 254 258 241 247 249 221 220 232 222 217 211 207 208 204 196 195 189 186 186 186 185 185 187 187 188 192 194 193 193 195 195
229 229 234 227 230 260 284 191 151 171 246 226 225 245 258 246 348 268 207 232 244 227 227 222 214 202 187 184 184 183 181 183 182 183 183 184 193 191 192 192 194 196 196 198
198 225 220 214 233 238 256 197 148 111 244 189 200 234 244 142 240 266 230 227 265 258 256 219 191 179 174 179 182 175 177 179 185 185 186 192 194 192 192 193 195 199 201 203
189 200 223 222 231 263 227 174 139 166 240 233 200 227 161 189 218 176 175 112 119 87 187 176 170 167 176 181 180 174 176 187 190 187 189 190 194 194 198 200 202 204 205 207
183 180 204 215 231 236 157 65 170 207 200 171 183 208 196 231 172 157 176 142 114 99 95 158 156 162 177 182 178 175 187 191 184 183 188 195 201 203 208 211 204 205 204 205
244 205 204 208 215 279 205 138 200 159 158 197 183 195 188 179 192 181 194 174 155 136 135 149 161 153 174 183 184 178 183 187 188 191 198 204 204 202 202 199 200 201 206 205
224 201 211 45 315 256 241 272 236 175 205 218 149 158 173 181 196 211 212 190 158 150 149 157 161 160 170 187 194 201 189 192 193 189 190 192 193 193 197 201 203 202 202 202
204 149 179 260 265 294 259 230 217 215 198 171 174 188 196 180 193 188 208 198 175 163 160 166 168 171 179 186 195 200 196 197 190 191 189 190 191 191 195 202 204 207 216 214
189 182 198 239 200 177 257 247 174 201 194 200 177 236 256 190 191 168 181 183 177 175 164 168 176 173 172 177 182 189 194 195 192 190 193 197 200 200 206 205 207 214 225 221